27.02.2024 02:00:00 115,77
27.02.2024 04:00:00 115,77
27.02.2024 06:00:00 115,77
27.02.2024 07:00:00 115,77
27.02.2024 09:00:00 115,77
27.02.2024 10:00:00 115,77
27.02.2024 11:00:00 115,77
27.02.2024 13:00:00 115,77
27.02.2024 14:00:00 115,76
27.02.2024 16:00:00 115,76
27.02.2024 17:00:00 115,76
27.02.2024 18:00:00 115,76
27.02.2024 19:00:00 115,76
27.02.2024 20:00:00 115,76
27.02.2024 21:00:00 115,76
27.02.2024 22:00:00 115,76
27.02.2024 23:00:00 115,76
28.02.2024 00:00:00 115,76
28.02.2024 05:00:00 115,76
28.02.2024 07:00:00 115,76
28.02.2024 08:00:00 115,76
28.02.2024 10:00:00 115,76
28.02.2024 11:00:00 115,76
28.02.2024 12:00:00 115,76
28.02.2024 14:00:00 115,76
28.02.2024 16:00:00 115,76
28.02.2024 17:00:00 115,75
28.02.2024 18:00:00 115,75
28.02.2024 20:00:00 115,75
28.02.2024 22:00:00 115,75
28.02.2024 23:00:00 115,75
29.02.2024 00:00:00 115,75
29.02.2024 01:00:00 115,75
29.02.2024 02:00:00 115,75
29.02.2024 03:00:00 115,75
29.02.2024 04:00:00 115,75
29.02.2024 05:00:00 115,75
29.02.2024 09:00:00 115,75
29.02.2024 11:00:00 115,76
29.02.2024 12:00:00 115,76
29.02.2024 14:00:00 115,76
29.02.2024 22:00:00 115,76
29.02.2024 23:00:00 115,76
01.03.2024 02:00:00 115,76
01.03.2024 03:00:00 115,76
01.03.2024 06:00:00 115,76
01.03.2024 07:00:00 115,76
01.03.2024 11:00:00 115,76
01.03.2024 12:00:00 115,76
01.03.2024 13:00:00 115,76
01.03.2024 15:00:00 115,76
01.03.2024 17:00:00 115,76
01.03.2024 18:00:00 115,76
01.03.2024 19:00:00 115,76
01.03.2024 20:00:00 115,76
01.03.2024 21:00:00 115,75
01.03.2024 23:00:00 115,75
02.03.2024 00:00:00 115,76
02.03.2024 01:00:00 115,75
02.03.2024 02:00:00 115,75
02.03.2024 04:00:00 115,75
02.03.2024 05:00:00 115,75
02.03.2024 06:00:00 115,75
02.03.2024 07:00:00 115,75
02.03.2024 11:00:00 115,75
02.03.2024 12:00:00 115,75
02.03.2024 13:00:00 115,75
02.03.2024 14:00:00 115,75
02.03.2024 15:00:00 115,75
02.03.2024 18:00:00 115,75
02.03.2024 19:00:00 115,75
03.03.2024 00:00:00 115,75
03.03.2024 01:00:00 115,75
03.03.2024 06:00:00 115,75
03.03.2024 07:00:00 115,75
03.03.2024 08:00:00 115,75
03.03.2024 09:00:00 115,75
03.03.2024 10:00:00 115,75
03.03.2024 11:00:00 115,75
03.03.2024 12:00:00 115,75
03.03.2024 13:00:00 115,75
03.03.2024 16:00:00 115,75
03.03.2024 17:00:00 115,75
03.03.2024 18:00:00 115,75
03.03.2024 19:00:00 115,75
03.03.2024 21:00:00 115,75
03.03.2024 22:00:00 115,75
03.03.2024 23:00:00 115,75
04.03.2024 00:00:00 115,75
04.03.2024 02:00:00 115,75
04.03.2024 03:00:00 115,74
04.03.2024 04:00:00 115,74
04.03.2024 05:00:00 115,75
04.03.2024 07:00:00 115,74
04.03.2024 09:00:00 115,74
04.03.2024 11:00:00 115,74
04.03.2024 12:00:00 115,74
04.03.2024 15:00:00 115,74
04.03.2024 17:00:00 115,74
04.03.2024 18:00:00 115,74
04.03.2024 20:00:00 115,74
04.03.2024 23:00:00 115,74
05.03.2024 00:00:00 115,74
05.03.2024 03:00:00 115,74
05.03.2024 04:00:00 115,74
05.03.2024 05:00:00 115,74
05.03.2024 06:00:00 115,74
05.03.2024 07:00:00 115,74
05.03.2024 08:00:00 115,73
05.03.2024 09:00:00 115,74
05.03.2024 10:00:00 115,73
05.03.2024 11:00:00 115,74
05.03.2024 13:00:00 115,73
05.03.2024 14:00:00 115,73
05.03.2024 15:00:00 115,73
05.03.2024 16:00:00 115,73
05.03.2024 17:00:00 115,73
05.03.2024 18:00:00 115,73
05.03.2024 19:00:00 115,73
05.03.2024 20:00:00 115,73
05.03.2024 21:00:00 115,73
05.03.2024 22:00:00 115,73
05.03.2024 23:00:00 115,73
06.03.2024 01:00:00 115,73
06.03.2024 02:00:00 115,73
06.03.2024 04:00:00 115,73
06.03.2024 05:00:00 115,73
06.03.2024 06:00:00 115,73
06.03.2024 11:00:00 115,73
06.03.2024 12:00:00 115,73
06.03.2024 14:00:00 115,73
06.03.2024 15:00:00 115,73
06.03.2024 16:00:00 115,73
06.03.2024 18:00:00 115,73
06.03.2024 19:00:00 115,73
06.03.2024 20:00:00 115,73
07.03.2024 02:00:00 115,73
07.03.2024 03:00:00 115,72
07.03.2024 05:00:00 115,73
07.03.2024 06:00:00 115,73
07.03.2024 09:00:00 115,73
07.03.2024 10:00:00 115,72
07.03.2024 11:00:00 115,73
07.03.2024 14:00:00 115,73
07.03.2024 15:00:00 115,73
07.03.2024 20:00:00 115,73
07.03.2024 22:00:00 115,73
08.03.2024 00:00:00 115,73
08.03.2024 01:00:00 115,73
08.03.2024 02:00:00 115,73
08.03.2024 03:00:00 115,73
08.03.2024 04:00:00 115,73
08.03.2024 07:00:00 115,73
08.03.2024 08:00:00 115,73
08.03.2024 09:00:00 115,73
08.03.2024 10:00:00 115,73
08.03.2024 11:00:00 115,73
08.03.2024 12:00:00 115,73
08.03.2024 13:00:00 115,73
08.03.2024 14:00:00 115,73
08.03.2024 18:00:00 115,73
08.03.2024 19:00:00 115,73
08.03.2024 21:00:00 115,73
08.03.2024 22:00:00 115,73
08.03.2024 23:00:00 115,73
09.03.2024 01:00:00 115,73
09.03.2024 03:00:00 115,73
09.03.2024 04:00:00 115,73
09.03.2024 05:00:00 115,73
09.03.2024 06:00:00 115,73
09.03.2024 07:00:00 115,73
09.03.2024 09:00:00 115,73
09.03.2024 10:00:00 115,73
09.03.2024 11:00:00 115,73
09.03.2024 12:00:00 115,73
09.03.2024 13:00:00 115,73
09.03.2024 14:00:00 115,73
09.03.2024 15:00:00 115,73
09.03.2024 16:00:00 115,73
09.03.2024 17:00:00 115,73
09.03.2024 19:00:00 115,73
09.03.2024 22:00:00 115,73
10.03.2024 00:00:00 115,73
10.03.2024 01:00:00 115,73
10.03.2024 02:00:00 115,73
10.03.2024 03:00:00 115,73
10.03.2024 04:00:00 115,73
10.03.2024 05:00:00 115,73
10.03.2024 06:00:00 115,73
10.03.2024 07:00:00 115,73
10.03.2024 08:00:00 115,73
10.03.2024 09:00:00 115,73
10.03.2024 10:00:00 115,73
10.03.2024 12:00:00 115,73
10.03.2024 13:00:00 115,73
10.03.2024 15:00:00 115,73
10.03.2024 16:00:00 115,73
10.03.2024 19:00:00 115,73
10.03.2024 20:00:00 115,73
10.03.2024 21:00:00 115,73
10.03.2024 23:00:00 115,73
11.03.2024 00:00:00 115,73
11.03.2024 01:00:00 115,73
11.03.2024 02:00:00 115,73
11.03.2024 03:00:00 115,73
11.03.2024 04:00:00 115,72
11.03.2024 06:00:00 115,72
11.03.2024 08:00:00 115,72
11.03.2024 11:00:00 115,72
11.03.2024 12:00:00 115,72
11.03.2024 13:00:00 115,72
11.03.2024 14:00:00 115,73
11.03.2024 15:00:00 115,73
11.03.2024 17:00:00 115,74
11.03.2024 19:00:00 115,76
11.03.2024 20:00:00 115,77
11.03.2024 21:00:00 115,79
11.03.2024 22:00:00 115,82
11.03.2024 23:00:00 115,84
12.03.2024 00:00:00 115,86
12.03.2024 01:00:00 115,87
12.03.2024 02:00:00 115,88
12.03.2024 03:00:00 115,89
12.03.2024 04:00:00 115,90
12.03.2024 05:00:00 115,90
12.03.2024 06:00:00 115,91
12.03.2024 07:00:00 115,91
12.03.2024 08:00:00 115,91
12.03.2024 09:00:00 115,92
12.03.2024 10:00:00 115,92
12.03.2024 11:00:00 115,92
12.03.2024 12:00:00 115,92
12.03.2024 13:00:00 115,92
12.03.2024 15:00:00 115,93
12.03.2024 16:00:00 115,93
12.03.2024 17:00:00 115,93
12.03.2024 23:00:00 115,93
13.03.2024 00:00:00 115,93
13.03.2024 01:00:00 115,93
13.03.2024 02:00:00 115,93
13.03.2024 03:00:00 115,93
13.03.2024 05:00:00 115,92
13.03.2024 06:00:00 115,92
13.03.2024 07:00:00 115,92
13.03.2024 08:00:00 115,92
13.03.2024 09:00:00 115,92
13.03.2024 10:00:00 115,92
13.03.2024 11:00:00 115,92
13.03.2024 12:00:00 115,92
13.03.2024 16:00:00 115,91
13.03.2024 17:00:00 115,91
13.03.2024 18:00:00 115,91
13.03.2024 19:00:00 115,91
13.03.2024 20:00:00 115,91
13.03.2024 21:00:00 115,91
13.03.2024 22:00:00 115,91
14.03.2024 00:00:00 115,90
14.03.2024 02:00:00 115,90
14.03.2024 03:00:00 115,90
14.03.2024 04:00:00 115,90
14.03.2024 06:00:00 115,90
14.03.2024 07:00:00 115,90
14.03.2024 09:00:00 115,90
14.03.2024 12:00:00 115,90
14.03.2024 14:00:00 115,90
14.03.2024 15:00:00 115,90
14.03.2024 16:00:00 115,89
14.03.2024 17:00:00 115,89
14.03.2024 18:00:00 115,89
14.03.2024 19:00:00 115,89
14.03.2024 21:00:00 115,89
14.03.2024 23:00:00 115,89
15.03.2024 00:00:00 115,89
15.03.2024 01:00:00 115,89
15.03.2024 02:00:00 115,89
15.03.2024 03:00:00 115,89
15.03.2024 04:00:00 115,89
15.03.2024 08:00:00 115,88
15.03.2024 10:00:00 115,88
15.03.2024 11:00:00 115,88
15.03.2024 13:00:00 115,88
15.03.2024 14:00:00 115,88
15.03.2024 15:00:00 115,88
15.03.2024 21:00:00 115,88
15.03.2024 23:00:00 115,88
16.03.2024 00:00:00 115,87
16.03.2024 02:00:00 115,87
16.03.2024 03:00:00 115,87
16.03.2024 05:00:00 115,87
16.03.2024 06:00:00 115,87
16.03.2024 09:00:00 115,87
16.03.2024 12:00:00 115,87
16.03.2024 13:00:00 115,87
16.03.2024 14:00:00 115,87
16.03.2024 17:00:00 115,86
16.03.2024 18:00:00 115,86
16.03.2024 19:00:00 115,86
16.03.2024 21:00:00 115,86
16.03.2024 22:00:00 115,86
16.03.2024 23:00:00 115,86
17.03.2024 00:00:00 115,86
17.03.2024 02:00:00 115,86
17.03.2024 08:00:00 115,85
17.03.2024 10:00:00 115,85
17.03.2024 11:00:00 115,85
17.03.2024 12:00:00 115,85
17.03.2024 13:00:00 115,85
17.03.2024 15:00:00 115,85
17.03.2024 16:00:00 115,85
17.03.2024 17:00:00 115,85
17.03.2024 18:00:00 115,85
17.03.2024 19:00:00 115,85
17.03.2024 20:00:00 115,85
17.03.2024 22:00:00 115,85
17.03.2024 23:00:00 115,85
18.03.2024 00:00:00 115,85
18.03.2024 01:00:00 115,85
18.03.2024 02:00:00 115,85
18.03.2024 03:00:00 115,85
18.03.2024 04:00:00 115,85
18.03.2024 05:00:00 115,85
18.03.2024 06:00:00 115,85
18.03.2024 07:00:00 115,85
18.03.2024 08:00:00 115,85
18.03.2024 09:00:00 115,85
18.03.2024 10:00:00 115,85
18.03.2024 12:00:00 115,85
18.03.2024 13:00:00 115,84
18.03.2024 14:00:00 115,84
18.03.2024 16:00:00 115,84
18.03.2024 17:00:00 115,84
18.03.2024 18:00:00 115,84
18.03.2024 22:00:00 115,84
18.03.2024 23:00:00 115,84
19.03.2024 00:00:00 115,84
19.03.2024 01:00:00 115,84
19.03.2024 03:00:00 115,83
19.03.2024 04:00:00 115,83
19.03.2024 05:00:00 115,83
19.03.2024 06:00:00 115,83
19.03.2024 07:00:00 115,83
19.03.2024 08:00:00 115,83
19.03.2024 09:00:00 115,83
19.03.2024 10:00:00 115,83
19.03.2024 11:00:00 115,83
19.03.2024 12:00:00 115,83
19.03.2024 13:00:00 115,83
19.03.2024 15:00:00 115,83
19.03.2024 16:00:00 115,83
19.03.2024 17:00:00 115,82
19.03.2024 19:00:00 115,82
19.03.2024 20:00:00 115,82
19.03.2024 21:00:00 115,82
19.03.2024 22:00:00 115,82
19.03.2024 23:00:00 115,82
20.03.2024 03:00:00 115,82
20.03.2024 05:00:00 115,82
20.03.2024 07:00:00 115,82
20.03.2024 08:00:00 115,82
20.03.2024 10:00:00 115,82
20.03.2024 11:00:00 115,82
20.03.2024 12:00:00 115,82
20.03.2024 13:00:00 115,82
20.03.2024 14:00:00 115,82
20.03.2024 15:00:00 115,82
20.03.2024 16:00:00 115,82
20.03.2024 18:00:00 115,82
20.03.2024 21:00:00 115,82
20.03.2024 22:00:00 115,81
20.03.2024 23:00:00 115,82
21.03.2024 00:00:00 115,82
21.03.2024 01:00:00 115,81
21.03.2024 02:00:00 115,82
21.03.2024 03:00:00 115,81
21.03.2024 04:00:00 115,81
21.03.2024 05:00:00 115,81
21.03.2024 07:00:00 115,81
21.03.2024 08:00:00 115,81
21.03.2024 09:00:00 115,81
21.03.2024 14:00:00 115,81
21.03.2024 15:00:00 115,81
21.03.2024 16:00:00 115,81
21.03.2024 17:00:00 115,81
21.03.2024 20:00:00 115,81
21.03.2024 21:00:00 115,81
21.03.2024 22:00:00 115,81
21.03.2024 23:00:00 115,81
22.03.2024 00:00:00 115,81
22.03.2024 01:00:00 115,81
22.03.2024 02:00:00 115,81
22.03.2024 03:00:00 115,81
22.03.2024 04:00:00 115,81
22.03.2024 05:00:00 115,81
22.03.2024 06:00:00 115,81
22.03.2024 08:00:00 115,81
22.03.2024 09:00:00 115,81
22.03.2024 10:00:00 115,81
22.03.2024 11:00:00 115,81
22.03.2024 12:00:00 115,81
22.03.2024 13:00:00 115,81
22.03.2024 16:00:00 115,81
22.03.2024 17:00:00 115,81
22.03.2024 21:00:00 115,81
22.03.2024 22:00:00 115,81
22.03.2024 23:00:00 115,81
23.03.2024 00:00:00 115,81
23.03.2024 01:00:00 115,81
23.03.2024 03:00:00 115,81
23.03.2024 04:00:00 115,81
23.03.2024 05:00:00 115,81
23.03.2024 06:00:00 115,81
23.03.2024 07:00:00 115,81
23.03.2024 08:00:00 115,81
23.03.2024 09:00:00 115,81
23.03.2024 10:00:00 115,81
23.03.2024 11:00:00 115,81
23.03.2024 12:00:00 115,81
23.03.2024 13:00:00 115,81
23.03.2024 14:00:00 115,81
23.03.2024 15:00:00 115,81
23.03.2024 16:00:00 115,80
23.03.2024 17:00:00 115,80
23.03.2024 18:00:00 115,80
23.03.2024 19:00:00 115,80
23.03.2024 20:00:00 115,80
23.03.2024 21:00:00 115,80
23.03.2024 22:00:00 115,80
23.03.2024 23:00:00 115,80
24.03.2024 00:00:00 115,80
24.03.2024 01:00:00 115,80
24.03.2024 02:00:00 115,80
24.03.2024 04:00:00 115,81
24.03.2024 05:00:00 115,80
24.03.2024 07:00:00 115,80
24.03.2024 08:00:00 115,80
24.03.2024 09:00:00 115,80
24.03.2024 10:00:00 115,80
24.03.2024 12:00:00 115,80
24.03.2024 14:00:00 115,80
24.03.2024 15:00:00 115,80
24.03.2024 18:00:00 115,80
24.03.2024 19:00:00 115,80
24.03.2024 20:00:00 115,80
24.03.2024 21:00:00 115,80
25.03.2024 00:00:00 115,80
25.03.2024 01:00:00 115,80
25.03.2024 02:00:00 115,80
25.03.2024 03:00:00 115,80
25.03.2024 04:00:00 115,79
25.03.2024 07:00:00 115,79
25.03.2024 08:00:00 115,79
25.03.2024 10:00:00 115,79
25.03.2024 11:00:00 115,79
25.03.2024 12:00:00 115,79
25.03.2024 13:00:00 115,79
25.03.2024 16:00:00 115,79
25.03.2024 17:00:00 115,79
25.03.2024 20:00:00 115,79
25.03.2024 21:00:00 115,79
25.03.2024 23:00:00 115,79
26.03.2024 00:00:00 115,79
26.03.2024 01:00:00 115,79
26.03.2024 02:00:00 115,79
26.03.2024 05:00:00 115,79
26.03.2024 06:00:00 115,79
26.03.2024 07:00:00 115,79
26.03.2024 08:00:00 115,79
26.03.2024 09:00:00 115,79
26.03.2024 12:00:00 115,79
26.03.2024 13:00:00 115,79
26.03.2024 14:00:00 115,79
26.03.2024 17:00:00 115,79
26.03.2024 18:00:00 115,79
26.03.2024 19:00:00 115,78
26.03.2024 20:00:00 115,78
26.03.2024 21:00:00 115,78
26.03.2024 22:00:00 115,78
26.03.2024 23:00:00 115,78
27.03.2024 00:00:00 115,78
27.03.2024 01:00:00 115,78
27.03.2024 02:00:00 115,78
27.03.2024 04:00:00 115,78
27.03.2024 05:00:00 115,78
27.03.2024 06:00:00 115,78
27.03.2024 08:00:00 115,78
27.03.2024 09:00:00 115,78
27.03.2024 10:00:00 115,78
27.03.2024 11:00:00 115,78
27.03.2024 12:00:00 115,78
27.03.2024 13:00:00 115,78
27.03.2024 15:00:00 115,78
27.03.2024 16:00:00 115,78
27.03.2024 17:00:00 115,78
27.03.2024 18:00:00 115,78
27.03.2024 19:00:00 115,78
27.03.2024 20:00:00 115,78
27.03.2024 21:00:00 115,78
27.03.2024 23:00:00 115,78
28.03.2024 00:00:00 115,78
28.03.2024 02:00:00 115,78
28.03.2024 04:00:00 115,78
28.03.2024 05:00:00 115,77
28.03.2024 06:00:00 115,77
29.03.2024 06:00:00 115,76
